| time (UTC) | temp F | wind direction | speed knots | gust knots | rain 1hr in | rain 24hr in | rain mn in | humidity % | barometer mb |
| 20260904190527 | 96 | 168 | 4.3 | 7.8 | 0.00 | 0.00 | 0.00 | 31 | 1013.4 |
| 20260904185522 | 95 | 156 | 2.6 | 9.6 | 0.00 | 0.00 | 0.00 | 32 | 1013.5 |
| 20260904184518 | 94 | 123 | 2.6 | 7.0 | 0.00 | 0.00 | 0.00 | 33 | 1013.7 |
| 20260904183528 | 94 | 151 | 3.5 | 7.8 | 0.00 | 0.00 | 0.00 | 33 | 1013.8 |
| 20260904182524 | 94 | 151 | 2.6 | 7.8 | 0.00 | 0.00 | 0.00 | 35 | 1014.0 |
| 20260904181519 | 92 | 164 | 1.7 | 5.2 | 0.00 | 0.00 | 0.00 | 37 | 1014.1 |
| 20260904180530 | 92 | 188 | 2.6 | 8.7 | 0.00 | 0.00 | 0.00 | 39 | 1014.2 |
| 20260904175525 | 92 | 168 | 2.6 | 6.1 | 0.00 | 0.00 | 0.00 | 38 | 1014.4 |
| 20260904174521 | 93 | 161 | 1.7 | 6.1 | 0.00 | 0.00 | 0.00 | 37 | 1014.4 |
| 20260904173516 | 94 | 137 | 4.3 | 8.7 | 0.00 | 0.00 | 0.00 | 35 | 1014.5 |
| 20260904172527 | 93 | 175 | 1.7 | 7.0 | 0.00 | 0.00 | 0.00 | 38 | 1014.7 |
| 20260904171523 | 92 | 165 | 2.6 | 7.0 | 0.00 | 0.00 | 0.00 | 40 | 1014.8 |
| 20260904170518 | 91 | 154 | 0.9 | 6.1 | 0.00 | 0.00 | 0.00 | 41 | 1014.9 |
| 20260904165528 | 92 | 154 | 2.6 | 7.8 | 0.00 | 0.00 | 0.00 | 40 | 1015.0 |
| 20260904164524 | 91 | 148 | 2.6 | 9.6 | 0.00 | 0.00 | 0.00 | 41 | 1015.0 |
| 20260904163519 | 90 | 137 | 2.6 | 6.1 | 0.00 | 0.00 | 0.00 | 42 | 1015.1 |
| 20260904162515 | 89 | 146 | 2.6 | 8.7 | 0.00 | 0.00 | 0.00 | 44 | 1014.9 |
| 20260904161526 | 89 | 143 | 2.6 | 7.0 | 0.00 | 0.00 | 0.00 | 46 | 1014.9 |
| 20260904160541 | 88 | 166 | 3.5 | 8.7 | 0.00 | 0.00 | 0.00 | 47 | 1014.9 |
| 20260904155517 | 87 | 165 | 2.6 | 7.0 | 0.00 | 0.00 | 0.00 | 49 | 1015.1 |
| 20260904154528 | 86 | 177 | 2.6 | 6.1 | 0.00 | 0.00 | 0.00 | 52 | 1014.9 |
| 20260904153524 | 84 | 139 | 4.3 | 11.3 | 0.00 | 0.00 | 0.00 | 56 | 1015.0 |
| 20260904152559 | 84 | 173 | 3.5 | 7.8 | 0.00 | 0.00 | 0.00 | 57 | 1015.0 |
| 20260904151515 | 83 | 137 | 2.6 | 8.7 | 0.00 | 0.00 | 0.00 | 59 | 1014.9 |
| 20260904150526 | 82 | 156 | 3.5 | 11.3 | 0.00 | 0.00 | 0.00 | 60 | 1015.0 |
| 20260904145522 | 81 | 162 | 2.6 | 7.0 | 0.00 | 0.00 | 0.00 | 62 | 1015.0 |
| 20260904144518 | 81 | 144 | 2.6 | 5.2 | 0.00 | 0.00 | 0.00 | 62 | 1015.0 |
| 20260904143528 | 80 | 159 | 2.6 | 7.0 | 0.00 | 0.00 | 0.00 | 64 | 1014.9 |
| 20260904142544 | 79 | 156 | 2.6 | 6.1 | 0.00 | 0.00 | 0.00 | 66 | 1014.9 |
| 20260904141520 | 79 | 149 | 2.6 | 7.8 | 0.00 | 0.00 | 0.00 | 67 | 1015.0 |
| 20260904140515 | 79 | 163 | 2.6 | 7.8 | 0.00 | 0.00 | 0.00 | 67 | 1015.0 |
| 20260904135526 | 78 | 140 | 1.7 | 6.1 | 0.00 | 0.00 | 0.00 | 70 | 1014.9 |
| 20260904134522 | 77 | 161 | 1.7 | 6.1 | 0.00 | 0.00 | 0.00 | 71 | 1014.9 |
| 20260904133518 | 75 | 158 | 1.7 | 5.2 | 0.00 | 0.00 | 0.00 | 74 | 1014.6 |
| 20260904132529 | 74 | 128 | 3.5 | 7.0 | 0.00 | 0.00 | 0.00 | 75 | 1014.7 |
| 20260904131544 | 73 | 124 | 3.5 | 7.0 | 0.00 | 0.00 | 0.00 | 76 | 1014.5 |
| 20260904130540 | 72 | 95 | 1.7 | 3.5 | 0.00 | 0.00 | 0.00 | 78 | 1014.5 |
| 20260904125516 | 72 | 154 | 1.7 | 5.2 | 0.00 | 0.00 | 0.00 | 78 | 1014.3 |
| 20260904124547 | 72 | 130 | 2.6 | 5.2 | 0.00 | 0.00 | 0.00 | 79 | 1014.2 |
| 20260904123522 | 71 | 123 | 2.6 | 5.2 | 0.00 | 0.00 | 0.00 | 79 | 1014.1 |
| 20260904122538 | 71 | 141 | 1.7 | 6.1 | 0.00 | 0.00 | 0.00 | 80 | 1014.1 |
| 20260904121529 | 71 | 139 | 2.6 | 6.1 | 0.00 | 0.00 | 0.00 | 79 | 1013.9 |
| 20260904120525 | 71 | 122 | 2.6 | 7.0 | 0.00 | 0.00 | 0.00 | 79 | 1013.8 |
| 20260904115521 | 71 | 156 | 1.7 | 3.5 | 0.00 | 0.00 | 0.00 | 79 | 1013.7 |
| 20260904114516 | 71 | 131 | 1.7 | 2.6 | 0.00 | 0.00 | 0.00 | 79 | 1013.7 |
| 20260904113546 | 71 | 132 | 2.6 | 5.2 | 0.00 | 0.00 | 0.00 | 79 | 1013.7 |
| 20260904112521 | 71 | 119 | 2.6 | 5.2 | 0.00 | 0.00 | 0.00 | 78 | 1013.7 |
| 20260904111517 | 71 | 126 | 1.7 | 6.1 | 0.00 | 0.00 | 0.00 | 78 | 1013.5 |
| 20260904110528 | 71 | 141 | 1.7 | 3.5 | 0.00 | 0.00 | 0.00 | 78 | 1013.6 |
| 20260904105524 | 71 | 114 | 1.7 | 2.6 | 0.00 | 0.00 | 0.00 | 78 | 1013.6 |
| 20260904104519 | 71 | 143 | 0.9 | 1.7 | 0.00 | 0.00 | 0.00 | 78 | 1013.5 |
| 20260904103535 | 71 | 138 | 0.9 | 1.7 | 0.00 | 0.00 | 0.00 | 78 | 1013.3 |
| 20260904102526 | 71 | 134 | 0.0 | 0.9 | 0.00 | 0.00 | 0.00 | 78 | 1013.2 |
| 20260904101522 | 71 | 134 | 0.0 | 1.7 | 0.00 | 0.00 | 0.00 | 78 | 1013.2 |
| 20260904100518 | 71 | 134 | 0.0 | 1.7 | 0.00 | 0.00 | 0.00 | 77 | 1013.2 |
| 20260904095529 | 72 | 138 | 2.6 | 5.2 | 0.00 | 0.00 | 0.00 | 77 | 1013.2 |
| 20260904094544 | 72 | 114 | 1.7 | 3.5 | 0.00 | 0.00 | 0.00 | 77 | 1013.2 |
| 20260904093520 | 72 | 134 | 1.7 | 6.1 | 0.00 | 0.00 | 0.00 | 77 | 1013.2 |
| 20260904092516 | 72 | 131 | 1.7 | 5.2 | 0.00 | 0.00 | 0.00 | 77 | 1013.1 |
| 20260904091527 | 72 | 145 | 0.9 | 5.2 | 0.00 | 0.00 | 0.00 | 77 | 1013.2 |
| 20260904090522 | 72 | 143 | 1.7 | 7.0 | 0.00 | 0.00 | 0.00 | 76 | 1013.1 |
| 20260904085518 | 72 | 152 | 1.7 | 6.1 | 0.00 | 0.00 | 0.00 | 76 | 1013.1 |
| 20260904084529 | 72 | 161 | 2.6 | 6.1 | 0.00 | 0.00 | 0.00 | 76 | 1013.2 |
| 20260904083525 | 72 | 169 | 4.3 | 6.1 | 0.00 | 0.00 | 0.00 | 76 | 1013.3 |
| 20260904082525 | 72 | 150 | 2.6 | 7.8 | 0.00 | 0.00 | 0.00 | 76 | 1013.0 |
| 20260904082028 | 72 | 150 | 2.6 | 8.7 | 0.00 | 0.00 | 0.00 | 76 | 1013.0 |
| 20260904081043 | 72 | 147 | 1.7 | 6.1 | 0.00 | 0.00 | 0.00 | 76 | 1013.0 |
| 20260904080019 | 72 | 135 | 1.7 | 6.1 | 0.00 | 0.00 | 0.00 | 76 | 1013.0 |
| 20260904075025 | 72 | 151 | 1.7 | 5.2 | 0.00 | 0.00 | 0.00 | 76 | 1013.0 |
| 20260904074046 | 72 | 162 | 2.6 | 5.2 | 0.00 | 0.00 | 0.00 | 75 | 1013.2 |
| 20260904073024 | 72 | 119 | 0.9 | 2.6 | 0.00 | 0.00 | 0.00 | 75 | 1013.2 |
| 20260904072020 | 72 | 130 | 0.9 | 3.5 | 0.00 | 0.00 | 0.00 | 75 | 1013.3 |
| 20260904071018 | 72 | 155 | 1.7 | 7.0 | 0.00 | 0.00 | 0.00 | 75 | 1013.5 |
| 20260904070030 | 72 | 135 | 1.7 | 6.1 | 0.00 | 0.00 | 0.00 | 75 | 1013.4 |
| 20260904065021 | 72 | 139 | 1.7 | 3.5 | 0.00 | 0.00 | 0.00 | 74 | 1013.5 |
| 20260904064043 | 72 | 134 | 1.7 | 2.6 | 0.00 | 0.00 | 0.00 | 74 | 1013.6 |
| 20260904063025 | 73 | 135 | 0.9 | 3.5 | 0.00 | 0.00 | 0.00 | 74 | 1013.4 |
| 20260904062037 | 73 | 142 | 1.7 | 5.2 | 0.00 | 0.00 | 0.00 | 74 | 1013.5 |
| 20260904061043 | 73 | 155 | 1.7 | 7.0 | 0.00 | 0.00 | 0.00 | 73 | 1013.4 |
| 20260904060057 | 73 | 157 | 1.7 | 7.8 | 0.00 | 0.00 | 0.00 | 73 | 1013.5 |
| 20260904055050 | 73 | 149 | 1.7 | 5.2 | 0.00 | 0.00 | 0.00 | 73 | 1013.5 |
| 20260904054023 | 73 | 151 | 2.6 | 6.1 | 0.00 | 0.00 | 0.00 | 72 | 1013.6 |
| 20260904053044 | 73 | 144 | 2.6 | 7.0 | 0.00 | 0.00 | 0.00 | 72 | 1013.5 |
| 20260904052112 | 73 | 147 | 2.6 | 7.8 | 0.00 | 0.00 | 0.00 | 71 | 1013.3 |
| 20260904051023 | 73 | 149 | 1.7 | 6.1 | 0.00 | 0.00 | 0.00 | 71 | 1013.2 |
| 20260904050029 | 73 | 141 | 2.6 | 7.0 | 0.00 | 0.00 | 0.00 | 70 | 1013.4 |
| 20260904045523 | 73 | 145 | 2.6 | 7.0 | 0.00 | 0.00 | 0.00 | 69 | 1013.6 |
| 20260904044550 | 73 | 151 | 2.6 | 8.7 | 0.00 | 0.00 | 0.00 | 69 | 1013.5 |
| 20260904043538 | 73 | 136 | 2.6 | 6.1 | 0.00 | 0.00 | 0.00 | 68 | 1013.5 |
| 20260904042516 | 74 | 127 | 3.5 | 6.1 | 0.00 | 0.00 | 0.00 | 67 | 1013.5 |
| 20260904041529 | 74 | 133 | 2.6 | 7.0 | 0.00 | 0.00 | 0.00 | 65 | 1013.6 |
| 20260904040523 | 74 | 122 | 2.6 | 7.0 | 0.00 | 0.00 | 0.00 | 63 | 1013.5 |
| 20260904035542 | 74 | 127 | 3.5 | 8.7 | 0.00 | 0.00 | 0.00 | 62 | 1013.6 |
| 20260904034537 | 74 | 129 | 3.5 | 7.8 | 0.00 | 0.00 | 0.00 | 61 | 1013.6 |
| 20260904033529 | 75 | 120 | 2.6 | 6.1 | 0.00 | 0.00 | 0.00 | 61 | 1013.5 |
| 20260904032528 | 75 | 129 | 3.5 | 7.8 | 0.00 | 0.00 | 0.00 | 62 | 1013.4 |
| 20260904031524 | 75 | 122 | 2.6 | 7.0 | 0.00 | 0.00 | 0.00 | 62 | 1013.4 |
| 20260904030516 | 75 | 128 | 2.6 | 6.1 | 0.00 | 0.00 | 0.00 | 62 | 1013.3 |
| 20260904025526 | 75 | 132 | 2.6 | 7.8 | 0.00 | 0.00 | 0.00 | 62 | 1013.2 |
| 20260904024521 | 76 | 130 | 1.7 | 5.2 | 0.00 | 0.00 | 0.00 | 62 | 1013.1 |
| 20260904023517 | 76 | 131 | 3.5 | 7.0 | 0.00 | 0.00 | 0.00 | 62 | 1012.9 |
| 20260904022526 | 76 | 119 | 3.5 | 6.1 | 0.00 | 0.00 | 0.00 | 62 | 1012.8 |
| 20260904021522 | 76 | 136 | 2.6 | 7.0 | 0.00 | 0.00 | 0.00 | 62 | 1012.7 |
| 20260904020517 | 77 | 136 | 3.5 | 7.0 | 0.00 | 0.00 | 0.00 | 62 | 1012.3 |
| 20260904015527 | 77 | 129 | 2.6 | 7.8 | 0.00 | 0.00 | 0.00 | 62 | 1012.2 |
| 20260904014523 | 77 | 136 | 3.5 | 7.8 | 0.00 | 0.00 | 0.00 | 63 | 1012.1 |
| 20260904013538 | 78 | 147 | 5.2 | 9.6 | 0.00 | 0.00 | 0.00 | 63 | 1012.0 |
| 20260904012548 | 78 | 144 | 4.3 | 7.8 | 0.00 | 0.00 | 0.00 | 62 | 1011.9 |
| 20260904011524 | 79 | 135 | 5.2 | 12.2 | 0.00 | 0.00 | 0.00 | 59 | 1011.9 |
| 20260904010519 | 80 | 135 | 3.5 | 7.8 | 0.00 | 0.00 | 0.00 | 55 | 1011.7 |
| 20260904005549 | 80 | 143 | 4.3 | 12.2 | 0.00 | 0.00 | 0.00 | 52 | 1011.8 |
| 20260904004524 | 81 | 128 | 4.3 | 9.6 | 0.00 | 0.00 | 0.00 | 50 | 1011.8 |
| 20260904003519 | 81 | 151 | 4.3 | 9.6 | 0.00 | 0.00 | 0.00 | 48 | 1011.6 |
| 20260904002529 | 81 | 132 | 2.6 | 7.0 | 0.00 | 0.00 | 0.00 | 49 | 1011.7 |
| 20260904001525 | 82 | 140 | 5.2 | 9.6 | 0.00 | 0.00 | 0.00 | 49 | 1011.5 |
| 20260904000540 | 82 | 140 | 4.3 | 8.7 | 0.00 | 0.00 | 0.00 | 50 | 1011.6 |
| 20260903235536 | 82 | 142 | 6.1 | 13.9 | 0.00 | 0.00 | 0.00 | 50 | 1011.5 |
| 20260903234526 | 83 | 123 | 4.3 | 11.3 | 0.00 | 0.00 | 0.00 | 49 | 1011.5 |
| 20260903233522 | 84 | 144 | 3.5 | 8.7 | 0.00 | 0.00 | 0.00 | 49 | 1011.4 |
| 20260903232517 | 84 | 134 | 5.2 | 8.7 | 0.00 | 0.00 | 0.00 | 48 | 1011.2 |
| 20260903231528 | 85 | 122 | 5.2 | 9.6 | 0.00 | 0.00 | 0.00 | 48 | 1011.3 |
| 20260903230524 | 85 | 138 | 4.3 | 9.6 | 0.00 | 0.00 | 0.00 | 48 | 1011.1 |
| 20260903225519 | 86 | 136 | 4.3 | 8.7 | 0.00 | 0.00 | 0.00 | 48 | 1011.1 |
| 20260903224530 | 86 | 150 | 3.5 | 7.8 | 0.00 | 0.00 | 0.00 | 48 | 1011.1 |
| 20260903223525 | 86 | 124 | 4.3 | 9.6 | 0.00 | 0.00 | 0.00 | 48 | 1011.3 |
| 20260903222520 | 87 | 136 | 4.3 | 7.8 | 0.00 | 0.00 | 0.00 | 47 | 1011.3 |
| 20260903221516 | 89 | 125 | 5.2 | 9.6 | 0.00 | 0.00 | 0.00 | 45 | 1011.3 |
| 20260903220527 | 89 | 134 | 5.2 | 11.3 | 0.00 | 0.00 | 0.00 | 45 | 1011.3 |
| 20260903215522 | 88 | 111 | 5.2 | 9.6 | 0.00 | 0.00 | 0.00 | 46 | 1011.2 |
| 20260903214517 | 90 | 148 | 3.5 | 7.0 | 0.00 | 0.00 | 0.00 | 44 | 1011.2 |
| 20260903213528 | 89 | 124 | 3.5 | 7.8 | 0.00 | 0.00 | 0.00 | 45 | 1011.2 |
| 20260903212523 | 88 | 144 | 4.3 | 7.8 | 0.00 | 0.00 | 0.00 | 46 | 1011.4 |
| 20260903211519 | 89 | 173 | 3.5 | 11.3 | 0.00 | 0.00 | 0.00 | 45 | 1011.4 |
| 20260903210529 | 89 | 170 | 3.5 | 8.7 | 0.00 | 0.00 | 0.00 | 46 | 1011.5 |
| 20260903205525 | 88 | 184 | 3.5 | 7.8 | 0.00 | 0.00 | 0.00 | 48 | 1011.8 |
| 20260903204521 | 87 | 170 | 3.5 | 13.0 | 0.00 | 0.00 | 0.00 | 49 | 1011.9 |
| 20260903203516 | 86 | 151 | 4.3 | 9.6 | 0.00 | 0.00 | 0.00 | 50 | 1012.0 |
| 20260903202527 | 86 | 149 | 3.5 | 8.7 | 0.00 | 0.00 | 0.00 | 50 | 1012.0 |
| 20260903201522 | 85 | 165 | 4.3 | 12.2 | 0.00 | 0.00 | 0.00 | 51 | 1012.1 |
| 20260903200517 | 85 | 166 | 4.3 | 13.0 | 0.00 | 0.00 | 0.00 | 51 | 1012.1 |
| 20260903195528 | 84 | 163 | 5.2 | 12.2 | 0.00 | 0.00 | 0.00 | 53 | 1012.1 |
| 20260903194523 | 84 | 151 | 6.1 | 9.6 | 0.00 | 0.00 | 0.00 | 53 | 1012.2 |
| 20260903193518 | 84 | 172 | 3.5 | 13.0 | 0.00 | 0.00 | 0.00 | 54 | 1012.4 |
| 20260903192529 | 84 | 171 | 3.5 | 12.2 | 0.00 | 0.00 | 0.00 | 54 | 1012.5 |
| 20260903191524 | 83 | 152 | 5.2 | 11.3 | 0.00 | 0.00 | 0.00 | 55 | 1012.7 |